Кант

Киргизия     42°53′21″N   74°51′05″E
темп.,
°C
ветер,
м/с
пор.,
м/с
влажн.,
%
обл.,
%
осадки,
мм/ч
давл.,
гПа
погр.,
м
9 мая, вс
вс900:00+19вюв235997 0.0 101443
03:00+16в22625 0.0 101316
06:00+15вюв226595 0.0 101225
09:00+21ссв0153100 0.0 1011269
12:00+26зсз3343100 0.0 1010779
15:00+27зсз5640100 0.0 10101659
18:00+18зсз71265100 0.1 1015655
21:00+17св1273100 0.0 101749
10 мая, пн
пн1000:00+15вюв368399 0.1 1015121
03:00+14вюв118557 0.0 101511
06:00+14всв0183100 0.0 101411
09:00+18сз116799 0.0 1013406
12:00+21сз335677 0.0 10121255
15:00+22з4356100 0.0 10111381
18:00+20зюз3569100 0.4 1012305
21:00+16ююз3789100 1.4 1014178
11 мая, вт
вт1100:00+14всв3392100 2.5 101350
03:00+13зсз0191100 0.0 101311
06:00+13ссз0191100 0.0 101410
09:00+16св1080100 0.0 1014269
12:00+20сз2252100 0.0 10131153
15:00+22зсз3346100 0.2 10131686
18:00+19юз3564100 0.4 1014283
21:00+14юв337618 0.1 101637
12 мая, ср
ср1200:00+13вюв48738 0.1 1015113
03:00+12юв34691 0.0 101458
06:00+12юв226569 0.0 101515
09:00+16сз225349 0.0 1016348
12:00+19сз555141 0.1 10161202
15:00+17с785698 0.4 10171292
18:00+15з126599 0.6 1020329
21:00+12вюв447993 0.2 1022159
13 мая, чт
чт1300:00+9в47830 0.2 1021123
03:00+8в23810 0.0 101844
06:00+7в22720 0.0 101720
09:00+15св23480 0.0 1015490
12:00+20зсз22355 0.0 10131334
15:00+22з323340 0.0 10121696
18:00+21з3344100 0.0 10121058
21:00+15всв0153100 0.0 101412